{"data":{"norad_id":66341,"intl_designator":"2025-253Y","name":"STARLINK-35522","alt_names":[],"object_type":"PAYLOAD","status":"ACTIVE","operator":null,"country":"US","launch_date":"2025-11-06","launch_site_code":"AFETR","launch_vehicle":null,"mission":null,"orbit_class":"UNKNOWN","rcs_meters":null,"size_class":null,"mass_kg":null,"dimensions":null,"purposes":["comms"],"wikipedia_slug":null,"has_3d_model":false,"image_url":null,"decayed_at":null,"tle_current":{"epoch":"2026-09-20T05:17:41.075520Z","epoch_age_seconds":117559,"freshness":"FRESH","line1":"1 66341U 25253Y   26263.22061430  .00016971  00000+0  62412-3 0  9995","line2":"2 66341  42.9995 194.0556 0001642 266.3516  93.7148 15.27616076 49996","mean_motion":15.27616076,"eccentricity":0.0001642,"inclination_deg":42.9995,"raan_deg":194.0556,"arg_perigee_deg":266.3516,"mean_anomaly_deg":93.7148,"bstar":0.00062412,"rev_number":4999,"period_min":94.264522521299,"perigee_km":481.81448462361,"apogee_km":484.06766266299,"semimajor_km":6861.0780736433,"source":"CELESTRAK","updated_at":"2026-09-21T09:00:35.877479Z"}}}